Glens Falls, NY

1:18 PM EST on November 12, 2019 (GMT -0500)
Bennett Memorial

Weather History for KGFL - September, 2019

Change the Weather History Date:

Monday, September 2, 2019

  Actual Average Record
Temperature  
Mean Temperature 64 °F 64 °F  
Max Temperature 73 °F 76 °F 97 °F (1953)
Min Temperature 55 °F 52 °F 34 °F (2017)
Degree Days  
Heating Degree Days 1 3  
Month to date heating degree days 7 6  
Since 1 July heating degree days 35 72  
Cooling Degree Days 0 2  
Month to date cooling degree days 0 4  
Year to date cooling degree days 395 331  
Growing Degree Days 14 (Base 50)    
Moisture  
Dew Point 60 °F    
Average Humidity 90    
Maximum Humidity 100    
Minimum Humidity 79    
Precipitation  
Precipitation 0.54 in 0.10 in 1.00 in (2013)
Month to date precipitation 0.60 0.20  
Year to date precipitation 29.39 26.01  
Sea Level Pressure  
Sea Level Pressure 30.02 in    
Wind  
Wind Speed 5 mph (SSW)    
Max Wind Speed 14 mph    
Max Gust Speed 18 mph    
Visibility 7 miles    
Events Fog , Rain    
T = Trace of Precipitation, MM = Missing Value Source: NWS Daily Summary

Daily Weather History Graph

Daily Weather History Graph

Search for Another Location

Airport or City:

Astronomy

Sep. 02, 2019 Rise Set
Actual Time 6:19 AM EDT 7:28 PM EDT
Civil Twilight 5:49 AM EDT 7:57 PM EDT
Nautical Twilight 5:14 AM EDT 8:32 PM EDT
Astronomical Twilight 4:37 AM EDT 9:09 PM EDT
Moon 10:04 AM EDT (9/2) 9:41 PM EDT (9/2)
Length of Visible Light 14h 07m
Length of Day
13h 08m
Waxing Crescent, 15% of the Moon is Illuminated
Sep 2
Waxing Crescent
Sep 5
First Quarter
Sep 14
Full
Sep 21
Last Quarter
Sep 28
New

Hourly Weather History & Observations

Time (EDT) Temp. Dew Point Humidity Pressure Visibility Wind Dir Wind Speed Gust Speed Precip Events Conditions
12:53 AM 62.1 °F 60.1 °F 93% 30.17 in 10.0 mi Calm Calm - 0.02 in Rain Light Rain
1:53 AM 62.1 °F 59.0 °F 90% 30.15 in 10.0 mi South 8.1 mph - 0.00 in Rain Light Rain
2:38 AM 62.1 °F 57.9 °F 86% 30.14 in 10.0 mi South 8.1 mph - 0.01 in Rain Light Rain
2:53 AM 62.1 °F 57.9 °F 86% 30.14 in 10.0 mi South 10.4 mph - 0.02 in Rain Light Rain
3:10 AM 61.0 °F 57.0 °F 87% 30.13 in 10.0 mi South 9.2 mph - 0.00 in Rain Light Rain
3:45 AM 60.1 °F 57.9 °F 93% 30.12 in 10.0 mi Variable 3.5 mph - 0.04 in   Overcast
3:53 AM 60.1 °F 57.9 °F 93% 30.12 in 10.0 mi SSW 4.6 mph - 0.04 in Rain Light Rain
4:14 AM 60.1 °F 57.9 °F 93% 30.13 in 9.0 mi WNW 6.9 mph - 0.01 in Rain Light Rain
4:53 AM 60.1 °F 59.0 °F 96% 30.11 in 10.0 mi Calm Calm - 0.03 in Rain Light Rain
5:53 AM 60.1 °F 57.9 °F 93% 30.08 in 10.0 mi ESE 5.8 mph - 0.01 in   Overcast
6:53 AM 60.1 °F 57.9 °F 93% 30.09 in 4.0 mi Calm Calm - 0.06 in Rain Light Rain
7:00 AM 60.1 °F 57.9 °F 93% 30.09 in 1.5 mi Calm Calm - 0.05 in Rain Rain
7:53 AM 60.1 °F 59.0 °F 96% 30.08 in 6.0 mi Calm Calm - 0.11 in Rain Light Rain
7:58 AM 60.1 °F 59.0 °F 96% 30.07 in 2.5 mi Calm Calm - 0.03 in Rain Rain
8:11 AM 61.0 °F 59.0 °F 93% 30.06 in 5.0 mi South 4.6 mph - 0.04 in Rain Light Rain
8:26 AM 61.0 °F 59.0 °F 93% 30.06 in 7.0 mi SSE 6.9 mph - 0.06 in Rain Light Rain
8:42 AM 61.0 °F 59.0 °F 93% 30.05 in 9.0 mi SSE 4.6 mph - 0.08 in Rain Light Rain
8:53 AM 61.0 °F 59.0 °F 93% 30.06 in 3.0 mi South 6.9 mph - 0.12 in Rain Rain
9:53 AM 63.0 °F 61.0 °F 93% 30.04 in 10.0 mi South 9.2 mph - 0.01 in   Overcast
10:53 AM 64.0 °F 61.0 °F 90% 30.01 in 10.0 mi South 6.9 mph - 0.02 in   Overcast
11:53 AM 64.0 °F 62.1 °F 93% 30.00 in 2.5 mi SSW 6.9 mph - 0.08 in Rain Rain
12:11 PM 64.9 °F 63.0 °F 93% 29.98 in 6.0 mi Variable 6.9 mph - 0.04 in Rain Light Rain
12:19 PM 66.0 °F 63.0 °F 90% 29.98 in 8.0 mi South 8.1 mph - 0.04 in Rain Light Rain
12:41 PM 66.9 °F 63.0 °F 87% 29.97 in 10.0 mi South 11.5 mph - 0.04 in   Overcast
12:53 PM 66.0 °F 63.0 °F 90% 29.97 in 10.0 mi SSW 9.2 mph - 0.04 in   Overcast
1:36 PM 66.0 °F 63.0 °F 90% 29.96 in 10.0 mi SW 5.8 mph - N/A   Overcast
1:53 PM 66.9 °F 63.0 °F 87% 29.96 in 10.0 mi South 4.6 mph - N/A   Overcast
2:53 PM 69.1 °F 64.0 °F 84% 29.93 in 10.0 mi South 5.8 mph - N/A   Mostly Cloudy
3:14 PM 70.0 °F 64.9 °F 84% 29.92 in 10.0 mi SSE 6.9 mph - N/A   Overcast
3:53 PM 71.1 °F 64.9 °F 81% 29.92 in 10.0 mi South 5.8 mph - N/A   Overcast
4:53 PM 71.1 °F 66.0 °F 84% 29.92 in 10.0 mi South 6.9 mph - N/A   Mostly Cloudy
5:53 PM 72.0 °F 66.0 °F 81% 29.92 in 10.0 mi SSW 8.1 mph - N/A   Scattered Clouds
6:53 PM 72.0 °F 64.9 °F 78% 29.93 in 10.0 mi North 4.6 mph - N/A   Overcast
7:53 PM 68.0 °F 62.1 °F 81% 29.95 in 10.0 mi WNW 3.5 mph - N/A   Clear
8:53 PM 64.9 °F 62.1 °F 90% 29.97 in 10.0 mi East 3.5 mph - N/A   Clear
9:29 PM 62.1 °F 60.1 °F 93% 29.98 in 2.0 mi Calm Calm - N/A   Clear
9:43 PM 60.1 °F 60.1 °F 100% 29.98 in 1.5 mi Calm Calm - N/A   Clear
9:53 PM 60.1 °F 57.9 °F 93% 29.99 in 2.5 mi WNW 3.5 mph - N/A   Clear
10:00 PM 61.0 °F 60.1 °F 97% 29.99 in 10.0 mi WNW 3.5 mph - N/A   Clear
10:53 PM 60.1 °F 57.9 °F 93% 30.00 in 10.0 mi Calm Calm - N/A   Clear
11:18 PM 57.0 °F 55.9 °F 96% 30.00 in 1.8 mi Calm Calm - N/A   Partly Cloudy
11:27 PM 59.0 °F 57.0 °F 93% 30.00 in 0.5 mi Calm Calm - N/A Fog Fog
11:34 PM 57.9 °F 55.9 °F 93% 30.00 in 2.5 mi Calm Calm - N/A   Mostly Cloudy
11:41 PM 55.9 °F 55.0 °F 97% 30.00 in 1.0 mi Calm Calm - N/A   Mostly Cloudy
11:48 PM 57.2 °F 55.4 °F 94% 30.01 in 0.5 mi SSW 3.5 mph - N/A Fog Fog
11:53 PM 57.0 °F 57.0 °F 100% 30.01 in 0.8 mi SW 3.5 mph - N/A   Mostly Cloudy